GFSNIL_sfc_thetae_003.txt.gz
Theta_e
274 274 274 274 274 274 274 275 276 275 275 276 275 275 277 279 279 284 284 290 291 291
272 272 272 273 274 274 275 275 275 275 274 274 274 274 274 274 275 278 283 285 292 290
272 272 272 272 272 273 274 274 273 273 273 273 273 273 273 274 276 278 280 283 291 292
271 271 271 271 272 272 273 273 272 272 272 272 272 272 272 272 272 273 276 282 286 291
269 269 269 270 271 272 271 272 271 271 271 271 271 271 271 271 272 273 276 280 281 291
268 268 269 269 270 270 270 270 270 270 269 269 270 270 271 271 271 272 276 279 282 286
267 268 268 268 269 269 269 268 268 268 269 269 269 270 270 271 271 272 275 278 280 283
267 267 267 267 267 267 267 267 267 267 268 268 268 270 269 270 270 271 275 277 280 283
266 266 266 266 265 265 265 265 265 266 266 267 268 272 274 274 273 274 274 277 279 282
264 263 263 264 263 263 263 263 264 266 267 267 268 272 274 275 274 274 275 276 279 281
262 261 261 261 261 261 263 263 264 265 266 267 269 274 275 276 274 275 275 276 278 280
261 259 259 258 259 262 262 262 262 265 265 265 266 273 276 277 274 274 274 277 279 281
259 257 257 258 260 261 260 262 264 263 265 267 267 272 277 279 275 272 274 275 278 282
258 256 257 260 260 260 260 262 261 262 264 266 270 270 275 279 277 275 274 275 277 281

GFSNIL_sfc_thetae_006.txt.gz
Theta_e
273 273 273 273 273 273 273 274 275 275 275 275 275 275 275 275 275 277 275 275 278 282
272 271 271 271 272 272 273 274 275 275 274 274 274 274 274 273 273 273 273 273 275 276
271 271 271 271 271 271 272 273 273 273 273 273 273 273 273 273 273 272 273 275 275 278
270 270 270 270 270 271 271 272 272 272 272 272 272 272 272 272 272 271 272 272 272 274
269 269 269 269 269 271 270 271 271 271 271 270 270 271 270 270 271 271 270 271 272 273
268 268 268 268 269 269 269 269 269 269 268 269 269 269 270 270 270 270 270 271 271 272
267 268 267 268 268 268 268 267 267 267 267 268 268 269 269 270 270 270 271 272 272 272
267 267 267 267 267 267 267 266 266 266 266 266 267 268 268 270 270 270 270 271 272 273
266 266 265 265 265 265 265 265 265 265 265 266 267 271 273 274 272 273 273 273 273 274
264 263 263 263 263 263 262 263 264 264 264 264 265 270 273 274 274 273 273 273 273 274
263 261 261 261 260 261 262 263 263 262 263 264 265 270 272 274 273 274 274 274 274 274
261 259 259 257 259 260 261 261 260 263 262 262 263 269 272 274 273 274 275 276 274 274
260 257 257 258 258 260 259 261 262 262 262 263 263 269 272 273 272 273 273 276 275 276
258 257 257 258 259 258 259 261 260 262 264 265 267 267 271 274 272 271 271 273 276 275

GFSNIL_sfc_thetae_009.txt.gz
Theta_e
276 275 275 275 274 274 274 274 276 276 276 277 277 277 277 277 277 277 277 276 277 278
274 273 273 273 273 273 274 274 275 275 275 275 275 276 276 276 276 276 276 276 276 275
273 273 273 272 272 272 272 273 273 273 274 274 274 274 274 275 275 275 275 276 275 275
272 272 271 271 271 271 272 272 272 272 272 272 272 273 273 273 273 273 273 274 274 274
271 270 270 270 270 271 270 271 271 271 271 271 271 271 270 271 271 271 270 271 272 272
269 269 269 269 269 270 270 270 270 270 269 269 269 269 269 269 270 270 271 271 271 271
268 269 268 269 269 269 269 268 268 268 268 268 268 268 268 269 269 270 270 271 272 272
268 268 268 268 268 268 268 267 267 267 266 267 267 268 268 270 271 271 272 273 273 274
267 267 266 266 266 266 266 266 265 265 266 266 267 269 272 272 271 272 272 272 273 275
265 264 265 264 264 264 264 264 264 265 265 264 265 270 272 273 272 271 272 272 273 274
264 263 263 262 262 262 263 263 263 263 263 264 266 270 271 273 272 272 272 273 274 275
263 261 261 259 261 262 262 262 261 263 263 263 263 269 272 273 271 270 271 273 275 275
262 259 258 260 259 261 260 261 263 263 263 264 264 269 272 273 271 269 270 271 273 275
260 258 258 258 259 259 259 261 260 262 264 266 267 267 271 273 271 270 270 271 272 274

GFSNIL_sfc_thetae_015.txt.gz
Theta_e
289 288 287 286 285 284 284 284 284 283 282 282 282 282 281 282 282 282 282 281 282 282
287 286 285 285 284 283 283 282 282 281 280 280 280 280 280 280 280 280 281 281 281 281
285 284 284 284 282 282 282 281 280 279 279 279 279 279 279 279 279 279 279 279 279 279
284 283 283 281 281 281 280 279 278 278 278 277 277 278 277 277 277 277 277 277 277 277
283 281 280 280 279 280 278 278 278 277 277 276 276 276 276 275 275 275 275 275 275 275
280 279 279 278 278 278 277 277 277 276 275 275 275 274 274 274 274 274 274 274 274 274
279 278 278 278 277 276 276 275 275 275 274 274 273 273 273 273 273 273 274 275 275 275
278 278 277 276 275 275 274 274 274 273 273 273 273 273 273 273 273 273 274 275 275 275
277 276 275 275 274 273 273 272 272 272 272 271 272 274 275 275 274 274 273 272 273 275
275 273 273 273 272 271 271 271 271 271 271 271 271 274 275 275 274 273 273 273 273 273
273 272 271 270 269 270 270 270 270 270 270 269 271 273 274 275 274 273 273 273 273 273
272 270 269 268 269 269 269 269 269 269 269 268 268 272 274 275 273 272 273 274 274 274
270 269 268 268 268 269 268 268 269 268 268 268 268 272 274 275 273 272 273 274 275 275
268 268 268 268 268 267 266 267 266 267 269 270 271 271 273 275 274 273 273 272 271 272

GFSNIL_sfc_thetae_021.txt.gz
Theta_e
287 286 286 284 284 284 283 282 281 281 280 279 279 279 279 278 278 278 279 278 279 279
287 286 285 284 283 283 282 281 280 280 279 278 278 278 277 277 277 278 278 278 278 278
286 286 286 283 282 281 281 280 279 278 277 277 277 277 277 277 277 277 277 278 277 278
285 285 283 283 282 281 280 279 278 277 277 276 276 276 276 276 276 275 276 276 276 276
283 282 282 281 280 279 278 277 277 276 276 276 276 275 275 274 275 274 274 275 274 274
282 281 281 280 278 278 277 276 276 276 275 275 275 274 274 274 274 274 273 273 273 273
282 281 280 278 278 277 277 275 275 275 274 274 274 274 274 274 273 273 273 273 273 273
282 280 277 277 277 276 275 275 274 273 273 273 273 273 273 273 273 273 273 274 274 274
279 277 277 277 276 275 274 274 274 273 273 272 273 276 277 276 274 274 274 274 274 274
278 276 276 276 275 274 273 274 273 272 273 272 273 277 278 278 276 275 274 273 273 274
276 276 275 274 274 273 273 272 272 272 272 272 272 276 277 277 275 274 274 274 273 273
276 275 273 273 272 272 272 272 271 272 271 271 272 276 275 275 275 274 273 274 274 274
275 274 273 273 272 273 273 271 271 271 271 271 269 274 275 276 274 269 272 273 275 275
274 273 273 272 272 272 272 271 270 269 269 269 269 270 275 276 273 272 271 273 272 273

GFSNIL_sfc_thetae_027.txt.gz
Theta_e
290 289 288 286 287 286 285 285 284 283 282 280 280 280 280 280 279 279 279 278 278 279
289 289 287 286 286 286 285 285 283 283 282 281 280 280 279 279 278 278 279 278 278 278
288 288 287 285 285 285 285 284 282 283 282 281 280 280 279 278 278 278 277 278 277 277
288 288 287 285 285 285 284 283 283 282 281 281 280 279 278 278 277 277 276 276 277 276
288 287 286 286 284 285 283 283 283 282 281 280 280 279 278 277 277 276 276 276 276 275
286 285 286 286 284 283 283 282 281 281 280 280 279 278 278 277 276 276 275 275 275 274
286 285 286 286 284 282 282 281 280 280 280 279 278 278 277 276 275 274 274 275 275 274
286 286 286 284 283 282 282 281 280 279 278 278 277 277 276 275 275 274 273 274 274 274
284 284 284 283 282 281 280 279 279 278 277 276 276 281 281 277 274 274 273 272 273 274
284 283 283 282 280 280 279 278 278 277 276 276 276 282 282 280 275 274 273 273 274 275
283 282 281 280 279 278 278 277 276 276 276 275 275 283 283 280 275 274 274 275 275 275
280 280 278 277 277 277 277 276 276 276 276 275 275 283 283 280 275 275 275 275 275 275
279 280 277 278 277 278 277 277 276 275 275 275 275 283 283 281 276 274 274 274 275 276
276 277 277 276 275 275 275 275 274 274 274 274 275 280 283 282 276 274 273 273 273 274

GFSNIL_sfc_thetae_030.txt.gz
Theta_e
291 290 289 287 288 287 287 287 286 284 284 283 282 282 281 281 281 280 280 279 279 279
290 289 288 286 286 286 286 286 284 284 283 282 282 281 281 281 280 280 280 279 279 278
288 289 288 285 285 285 285 285 283 283 283 282 281 281 281 280 280 280 279 279 278 278
287 288 286 285 285 286 285 285 283 284 283 282 281 281 281 280 279 279 278 278 278 277
287 285 285 286 286 285 285 285 284 284 283 282 282 281 281 280 279 278 277 277 277 276
284 283 286 286 285 284 285 284 284 283 282 282 282 281 281 280 279 278 278 277 277 276
284 285 286 286 285 284 285 283 283 283 282 282 281 281 280 279 278 278 277 277 277 276
285 284 284 285 285 283 283 283 283 282 282 281 280 280 279 279 278 277 276 276 276 275
286 283 283 284 283 282 282 282 282 281 281 279 280 284 284 280 278 277 275 274 275 275
284 284 283 283 282 282 281 282 281 281 280 279 280 284 285 284 278 276 276 275 274 274
282 283 282 281 281 281 281 280 280 280 280 279 279 284 286 284 278 277 276 275 274 274
280 280 280 280 280 280 280 279 280 280 279 279 278 284 286 283 277 276 275 275 275 275
277 276 278 278 278 279 280 279 279 278 279 278 277 283 286 282 276 274 274 275 276 277
278 275 276 277 278 278 278 278 277 276 277 277 277 280 286 283 276 275 274 274 274 275

GFSNIL_sfc_thetae_033.txt.gz
Theta_e
293 293 292 290 291 290 290 290 290 288 288 287 286 286 286 285 285 285 285 285 284 285
291 292 291 290 290 290 290 290 290 288 288 287 286 285 285 285 284 284 284 284 285 284
290 290 291 288 288 289 289 289 288 287 287 286 285 285 285 284 284 283 283 283 283 283
288 288 289 287 287 288 288 287 286 286 286 285 284 284 284 284 283 282 282 282 282 281
288 287 287 287 287 287 286 286 286 286 285 285 284 284 283 283 282 282 281 281 281 280
286 286 286 287 287 286 286 286 286 285 285 284 284 283 283 284 282 282 282 281 280 280
285 285 286 287 287 286 286 285 285 285 285 284 283 283 283 283 282 282 281 281 281 280
285 285 285 285 286 286 285 285 285 284 284 284 283 283 282 282 282 281 280 280 280 280
283 283 283 284 284 285 284 284 284 283 283 283 283 286 287 284 282 280 280 278 279 279
282 280 281 282 282 283 283 283 283 283 283 283 283 287 288 286 282 281 280 280 278 278
281 279 280 280 281 281 282 282 282 282 283 283 282 286 288 286 282 281 280 280 279 278
277 279 280 279 280 280 281 281 282 283 283 282 282 285 287 287 282 280 279 279 279 278
276 279 279 279 279 280 280 280 281 281 282 282 282 284 286 287 282 279 278 278 277 279
275 276 276 279 279 279 279 279 279 278 279 280 280 280 285 287 282 279 277 276 275 276

GFSNIL_sfc_thetae_036.txt.gz
Theta_e
297 297 298 299 299 298 298 298 298 297 297 296 296 295 294 294 293 294 293 293 294 293
294 295 296 297 297 297 298 297 297 297 295 295 295 294 294 292 292 292 292 292 292 292
292 293 294 294 295 295 296 296 295 295 294 295 294 293 293 292 292 291 291 291 291 290
291 291 292 292 293 294 295 295 294 294 293 293 293 292 291 291 291 289 289 289 289 288
290 290 290 290 291 292 292 293 293 292 292 291 291 291 289 289 289 288 287 287 287 287
288 287 287 287 289 290 290 290 292 291 290 290 290 289 289 289 289 288 287 287 286 286
286 286 285 286 287 288 288 289 289 290 289 289 289 288 288 287 288 288 287 287 286 284
286 286 284 283 284 286 286 287 288 287 287 288 288 287 286 286 287 287 286 286 285 284
286 284 281 282 283 284 285 286 287 287 287 287 286 288 289 287 285 285 284 284 284 283
284 280 279 281 283 282 283 285 285 286 287 287 287 288 289 288 285 285 284 284 283 282
281 278 278 279 281 282 282 283 283 285 286 286 285 288 289 288 286 285 285 284 283 282
279 276 277 276 278 278 280 281 282 283 284 284 285 286 287 287 286 285 284 284 284 283
277 275 275 275 275 277 279 280 281 281 283 283 283 285 286 286 286 284 284 283 282 283
275 274 274 273 274 274 275 276 278 279 281 282 283 283 285 286 285 285 284 282 282 281

GFSNIL_sfc_thetae_042.txt.gz
Theta_e
290 290 290 290 291 291 291 293 294 293 294 295 295 295 293 291 290 290 291 291 289 290
289 288 288 288 288 289 290 292 291 291 291 292 293 293 293 290 289 289 290 291 291 290
287 287 287 286 285 285 286 288 289 289 289 290 290 291 290 290 289 288 290 290 289 289
285 286 285 284 283 283 284 285 286 287 287 287 288 288 288 288 288 287 288 289 288 288
284 284 284 283 282 282 282 283 284 285 285 286 287 287 286 287 289 288 288 288 288 288
281 281 282 282 280 280 281 281 282 282 282 283 284 285 285 285 287 287 288 288 287 287
280 281 282 282 280 278 279 280 280 281 281 282 283 284 284 285 285 286 287 287 287 287
281 281 281 280 280 279 278 279 280 280 280 281 281 282 283 284 284 284 285 286 286 287
281 281 280 280 280 279 278 278 279 279 279 278 280 284 286 286 284 285 285 284 285 286
280 280 280 280 279 279 277 277 277 277 278 277 278 283 284 286 283 283 284 284 285 285
279 279 279 279 278 278 278 276 276 276 276 276 277 281 283 283 282 282 283 284 284 284
277 277 277 276 277 277 276 276 275 275 274 274 274 279 280 280 279 280 281 283 284 284
274 273 273 274 274 275 275 274 274 273 273 273 271 276 277 277 276 277 279 281 282 284
270 268 268 268 269 269 269 270 269 269 270 270 270 271 275 277 275 276 277 278 280 282

GFSNIL_sfc_thetae_045.txt.gz
Theta_e
288 288 287 287 287 286 286 288 290 289 290 290 291 293 293 290 289 289 289 290 289 291
286 286 285 284 283 284 285 286 286 287 287 288 288 289 290 290 289 288 288 289 289 289
286 287 286 284 282 282 282 283 283 284 285 285 286 286 286 286 287 286 288 289 288 289
284 284 285 284 284 283 281 282 282 282 283 283 284 284 284 284 285 285 286 286 286 287
283 282 282 282 282 281 281 281 281 282 282 282 282 282 282 283 283 284 285 286 285 286
280 280 280 280 281 281 280 279 279 280 280 281 281 281 281 282 282 283 284 284 285 285
279 279 279 279 279 280 280 279 278 279 279 280 280 281 281 281 282 282 283 283 284 284
280 280 279 279 279 279 279 279 278 278 278 279 280 280 279 280 281 281 282 283 283 284
280 281 280 280 280 280 279 279 279 278 278 277 278 282 283 282 280 280 281 281 283 283
280 279 279 279 279 279 278 278 278 278 277 276 277 281 281 281 279 279 280 280 281 281
277 277 277 277 276 276 276 276 276 276 276 276 277 280 280 280 277 277 277 278 279 280
273 271 271 270 271 271 271 271 271 273 273 274 274 278 279 278 275 275 274 276 277 277
269 267 267 267 266 267 266 267 268 267 268 269 268 273 274 275 273 271 272 273 275 277
266 264 264 263 263 263 263 263 262 263 264 265 266 267 271 273 271 270 270 271 273 275

GFSNIL_sfc_thetae_048.txt.gz
Theta_e
286 285 285 283 283 283 283 283 284 284 285 286 286 287 287 288 287 287 287 287 287 290
286 286 285 285 283 283 283 284 284 284 284 284 284 285 285 284 284 285 285 287 287 288
284 285 285 285 284 284 284 283 282 283 283 283 284 283 283 282 283 283 284 286 285 287
282 282 283 282 282 282 282 282 282 282 281 281 282 282 281 281 281 281 282 283 283 284
281 281 280 280 281 281 281 282 281 281 281 281 281 280 279 279 280 280 280 281 282 282
280 279 279 280 280 281 280 280 280 280 280 280 280 280 279 279 279 279 279 280 281 282
278 279 279 279 279 279 279 279 279 279 279 279 279 279 279 279 279 279 279 280 281 281
279 279 279 278 279 279 279 279 279 279 279 278 278 278 278 278 278 278 278 280 280 281
279 279 278 278 278 278 278 278 278 278 277 277 278 281 282 281 278 278 278 277 278 279
276 276 276 276 275 274 273 274 273 274 274 274 275 279 280 280 278 278 277 277 277 278
273 271 272 271 270 270 270 270 269 269 270 270 271 275 276 276 275 275 276 276 276 276
270 268 268 266 267 267 266 266 265 266 266 266 266 270 272 272 270 271 271 273 274 274
267 265 264 264 263 264 263 264 264 264 264 264 263 268 270 271 269 267 269 270 271 274
265 263 262 262 262 261 261 262 261 261 262 262 263 264 268 270 269 268 268 268 269 271